Location: Ljubljana
(46.0550°N, 14.5140°E)
Time: 06:24:34
(UTC+01:00)

Tiangong 2 - Visible Passes

Search period start: 25 November 2017 00:00
Search period end: 05 December 2017 00:00
Orbit: 386 x 392 km, 42.8° (Epoch: 24 November)

Date Brightness Start Highest point End Pass type
(mag) Time Alt. Az. Time Alt. Az. Time Alt. Az.
26 Nov 4.2 06:13:02 10° S 06:14:28 12° SSE 06:15:55 10° ESE visible
28 Nov 3.6 05:52:12 10° SSW 05:54:34 19° SSE 05:56:57 10° ESE visible
29 Nov 3.9 04:56:08 13° SSE 04:56:32 13° SSE 04:58:07 10° ESE visible
29 Nov 2.6 06:29:51 10° SW 06:32:49 35° SSE 06:35:48 10° E visible
30 Nov 2.9 05:33:20 20° SSW 05:34:40 27° SSE 05:37:28 10° ESE visible
01 Dec 4.2 04:38:04 15° ESE 04:38:04 15° ESE 04:39:00 10° ESE visible
01 Dec 2.1 06:10:23 13° WSW 06:12:59 43° S 06:16:03 10° E visible
02 Dec 2.4 05:14:59 36° SSE 05:14:59 36° SSE 05:17:46 10° E visible
02 Dec 2.0 06:48:16 10° W 06:51:21 44° S 06:54:26 10° ESE visible
03 Dec 1.8 05:51:49 28° WSW 05:53:07 46° S 05:56:12 10° ESE visible
04 Dec 3.3 04:56:17 25° ESE 04:56:17 25° ESE 04:57:56 10° E visible
04 Dec 2.2 06:28:35 11° W 06:31:26 37° SSW 06:34:26 10° ESE visible
